星链-34374 (STARLINK-34374)

导读

STARLINK-34374是美国SpaceX公司星链(Starlink)卫星互联网项目中的一颗低地球轨道通信卫星,于2025年6月8日由美国发射入轨。 作为星链星座扩容的组成部分,该卫星继承了星链二代技术,配备相控阵天线与激光星间链路,可提供高速低延迟宽带服务,助力完善全球互联网覆盖,尤其服务偏远地区与特殊场景通信需求。星链庞大的星座规模也引发了太空碎片和天文观测的相关争议。

基本信息
目录编号:
64308
目录名称:
STARLINK-34374
国际标识:
2025-123T
轨道中心:
EARTH
卫星名称:
星链-34374
卫星全名:
星链-34374 (STARLINK-34374)
卫星状态:
在轨 (已飞行453 天)
发射日期:
2025-06-08 UTC
国别 :
美国 (US)
星等 :
--
轨道信息
数据来源 国际轨道数据
星历时间: 2026-09-04T06:00:02+0800
9小时前
查看轨道信息
半长轴: 6855.472km
偏心率: 0.0002911
轨道倾角: 69.999°
近地点辐角 271.531°
升交点赤经 104.796°
平近点角 56.295°
近地点: 475.339km
远地点: 479.331km
周期: 94.149分钟
每日圈数: 15.294904
详细信息
固有亮度:
5
最大亮度:
2.5
卫星平台:
Starlink V1.0
覆盖范围:
全球
运营商:
太空探索技术公司
运营商所在国:
美国
制造商(研发单位):
太空探索技术公司
制造商所在国:
美国
使用方式:
暂无
卫星简介
Starlink 计划是 SpaceX 推出的全球卫星互联网项目,通过发射低轨道卫星,为全球尤其是偏远地区提供高速、低延迟的互联网服务。自 2019 年起,Starlink 已部署数千颗卫星,旨在缩小全球数字鸿沟,推动互联网普及。该项目还为军事、航空等行业提供通信支持,带来广泛经济效益。
2D轨道图
3D轨道图
轨道高度分析图
轨道倾角分析图
轨道综合分析图
查看轨道综合分析图
交会数据列表
事件ID 空间交会对象 最接近时刻(TCA) 交会距离 交会风险概率(CRP) 交会风险指数(CRI) 操作
CDM_260904-234706-430806-575721
2026-09-04T
23:47:07+0000
0.535 km
远距离
1.499792E-4 高风险 0.79
CDM_260903-203805-782706-430821
2026-09-03T
20:38:23+0000
0.876 km
远距离
3.768618E-5 中风险 0.67
CDM_260901-123706-430806-837521
2026-09-01T
12:37:26+0000
1.477 km
极远距离
7.043944E-6 低风险 0.52
CDM_260904-221406-430806-923921
2026-09-04T
22:14:20+0000
1.503 km
极远距离
5.756962E-6 低风险 0.5
CDM_260903-224305-687706-430821
2026-09-03T
22:43:36+0000
1.426 km
极远距离
4.554351E-6 低风险 0.48
CDM_260904-155406-430806-922621
2026-09-04T
15:54:56+0000
2.149 km
极远距离
2.416405E-6 低风险 0.43
CDM_260903-190405-782706-430821
2026-09-03T
19:04:11+0000
2.414 km
极远距离
1.692299E-6 低风险 0.4
CDM_260903-153905-708206-430821
2026-09-03T
15:39:09+0000
2.233 km
极远距离
1.455175E-6 低风险 0.38
CDM_260830-162706-430806-593921
OBJECT B (65939)
2026-08-30T
16:27:10+0000
2.830 km
极远距离
1.439728E-6 低风险 0.38
CDM_260903-204605-792106-430822
2026-09-03T
20:46:13+0000
2.565 km
极远距离
1.131942E-6 低风险 0.36